CZ-4 DEB, 26187

Orbit data source: Space-Track

CZ-4 DEB, 26187 is space debris in SSO originally from a launch on Thu, 14 Oct 1999 UTC launched from the Taiyaun Space Center, China (TSC). Debris objects in space refer to the collection of defunct objects orbiting the Earth. Examples of debris include non-operational satellites, rocket bodies, and fragments generated from explosions, collisions, or faulty payload assembly.

Loading next visibility...
Identifier
26187, 1999-057BZ
Orbit
SSO
Country
Flag of CNCN / PRC
Related business
Manufacturer
Unknown
Mission
Spacecraft
Bus & Motor
Unknown
Mass
Unknown
Launch date (UTC)
1999-10-14 (26 years ago)
Launch vehicle
Unknown
Launch site
Taiyaun Space Center, China (TSC)
Object type
Payload
Rocket body
Debris
Shape & HBR
Unknown shape, 0.2 m
Radar Cross Section
Small (<0.1 m²)

Expand to show TLE details & history
Last TLE update: 23 hours ago

TLE from 23 hours ago
0 CZ-4 DEB
1 26187U 99057BZ  26036.68480605  .00003857  00000-0  39991-3 0  9995
2 26187  98.5696  95.3060 0046770  30.1610 330.2283 14.89876634394820
Epoch: 2026-02-05T16:26Z
TLE epoch observation values (Epoch: 2026-02-05T16:26:07.242Z)
Latitude
-0.00003°
Longitude
72.94234°
Altitude
573.044 km
Speed
7.59 km/s
True Right ascension
06h 21m 13s
True Declination
0° 00' 00"
Sunlit
Object was in full shadow at epoch
Visualization orbit readout
Latitude
Unknown
Longitude
Unknown
Altitude
Unknown
Speed
Unknown
Apparent Right ascension
Unknown
Apparent Declination
Unknown
Sunlit
N/A
Visualization observer readout
Local Sidereal Time
17:45:41
Azimuth
Unknown
Elevation
Unknown
Doppler factor
Unknown
Orbital elements
Apogee altitude
627.995 km
Perigee altitude
562.765 km
Semi-major axis
6,973.517 km
Eccentricity
0.00468
Inclination
98.5696°
RAAN
95.306°
Arg. of periapsis
30.161°
True anomaly
329.96082°
Mean anomaly
330.2283°
Eccentric anomaly
330.0947°
Mean motion
3.72705 °/min
Orbital period
96.59 mins
BSTAR
0.00039991
Loading maneuver chart data...
Computing Atmospheric mass density...
Loading historical data...
Loading historical data...
Loading historical data...
Loading historical data...
Loading historical data...
Loading historical data...
Loading historical data...

Documentation

Showing up to 5 results
|